Nome, AK

3:38 AM AKDT on July 26, 2017 (GMT -0800)
Nome

Weather History for PAOM - December, 2011

Change the Weather History Date:

Wednesday, December 28, 2011

  Actual Average Record
Temperature  
Mean Temperature -20 °F 7 °F  
Max Temperature -9 °F 15 °F 38 °F (1925)
Min Temperature -30 °F 0 °F -41 °F (1961)
Degree Days  
Heating Degree Days 85 58  
Month to date heating degree days 1539 1546  
Since 1 July heating degree days 6004 5639  
Cooling Degree Days 0 0  
Month to date cooling degree days 0 0  
Year to date cooling degree days 0 3  
Moisture  
Dew Point -28 °F    
Average Humidity 0    
Maximum Humidity 0    
Minimum Humidity 0    
Precipitation  
Precipitation 0.00 in 0.03 in 0.53 in (1951)
Month to date precipitation 2.16 0.97  
Year to date precipitation 18.44 16.70  
Snow  
Snow 0.00 in 0.50 in 5.50 in (2003)
Month to date snowfall 27.4 13.0  
Since 1 July snowfall 43.9 30.3  
Snow Depth 24.00 in    
Sea Level Pressure  
Sea Level Pressure 29.44 in    
Wind  
Wind Speed 2 mph (North)    
Max Wind Speed 7 mph    
Max Gust Speed 8 mph    
Visibility 10 miles    
Events      
T = Trace of Precipitation, MM = Missing Value Source: NWS Daily Summary

Daily Weather History Graph

Daily Weather History Graph

Search for Another Location

Airport or City:

Trip Planner

Search our weather history database for the weather conditions in past years. The results will help you decide how hot, cold, wet, or windy it might be!

Date:

Astronomy

Dec. 28, 2011 Rise Set
Actual Time 12:02 PM AKST 4:04 PM AKST
Civil Twilight 10:41 AM AKST 5:25 PM AKST
Nautical Twilight 9:31 AM AKST 6:35 PM AKST
Astronomical Twilight 8:30 AM AKST 7:36 PM AKST
Moon 12:33 PM AKST (12/28) 11:05 PM AKST (12/28)
Length of Visible Light 6h 43m
Length of Day
4h 01m
Waxing Crescent, 19% of the Moon is Illuminated
Dec 28
Waxing Crescent
Dec 31
First Quarter
Jan 8
Full
Jan 16
Last Quarter
Jan 22
New

Hourly Weather History & Observations

Time (AKST) Temp. Windchill Dew Point Humidity Pressure Visibility Wind Dir Wind Speed Gust Speed Precip Events Conditions
12:53 AM -16.1 °F -32.3 °F -22.0 °F 74% 29.47 in 10.0 mi North 6.9 mph - N/A   Scattered Clouds
1:53 AM -9.0 °F -30.2 °F -17.0 °F 68% 29.47 in 10.0 mi North 13.8 mph - N/A   Scattered Clouds
3:53 AM -9.9 °F -21.5 °F -20.0 °F 61% 29.47 in 10.0 mi NNW 4.6 mph - N/A   Scattered Clouds
4:53 AM -20.0 °F -30.7 °F -25.1 °F 78% 29.46 in 10.0 mi West 3.5 mph - N/A   Scattered Clouds
5:53 AM -18.0 °F - -24.0 °F 74% 29.45 in 10.0 mi Calm Calm - N/A   Scattered Clouds
6:53 AM -20.9 °F - -26.0 °F 77% 29.45 in 10.0 mi Calm Calm - N/A   Scattered Clouds
7:53 AM -20.9 °F - -25.1 °F 81% 29.45 in 10.0 mi Calm Calm - N/A   Scattered Clouds
8:53 AM -24.0 °F - -29.0 °F 77% 29.44 in 10.0 mi Calm Calm - N/A   Scattered Clouds
9:53 AM -22.0 °F - -27.9 °F 74% 29.44 in 10.0 mi Calm Calm - N/A   Scattered Clouds
10:53 AM -22.0 °F - -27.9 °F 74% 29.44 in 10.0 mi Calm Calm - N/A   Partly Cloudy
11:53 AM -24.0 °F -35.2 °F -29.0 °F 77% 29.44 in 10.0 mi North 3.5 mph - N/A   Partly Cloudy
12:53 PM -23.1 °F -40.7 °F -29.9 °F 70% 29.43 in 10.0 mi NNE 6.9 mph - N/A   Partly Cloudy
1:53 PM -23.1 °F - -29.0 °F 74% 29.44 in 10.0 mi Calm Calm - N/A   Partly Cloudy
2:53 PM -23.1 °F - -29.0 °F 74% 29.43 in 10.0 mi Calm Calm - N/A   Partly Cloudy
3:53 PM -27.0 °F - -32.1 °F 77% 29.42 in 10.0 mi Calm Calm - N/A   Partly Cloudy
4:53 PM -27.0 °F - -31.0 °F 81% 29.41 in 10.0 mi Calm Calm - N/A   Scattered Clouds
5:53 PM -26.0 °F -40.2 °F -31.0 °F 77% 29.41 in 10.0 mi North 4.6 mph - N/A   Scattered Clouds
6:53 PM -27.0 °F -38.7 °F -32.1 °F 77% 29.42 in 10.0 mi NNW 3.5 mph - N/A   Scattered Clouds
7:53 PM -27.9 °F - -31.0 °F 85% 29.42 in 10.0 mi Calm Calm - N/A   Scattered Clouds
8:53 PM -26.0 °F - -29.9 °F 81% 29.42 in 10.0 mi Calm Calm - N/A   Scattered Clouds
9:53 PM -26.0 °F -40.2 °F -32.1 °F 73% 29.43 in 10.0 mi NNE 4.6 mph - N/A   Scattered Clouds
10:53 PM -26.0 °F - -29.9 °F 81% 29.44 in 10.0 mi Calm Calm - N/A   Scattered Clouds
11:53 PM -27.0 °F -38.7 °F -32.1 °F 77% 29.45 in 10.0 mi North 3.5 mph - N/A   Scattered Clouds